Regional Weather Roundup
Issued by NWS

Home | Current Version | Previous Version | Graphics & Text | Print | Product List | Glossary On
Versions: 1 2 3 4 5 6 7 8 9 10 11 12 13 14 15 16 17 18 19 20 21 22 23 24 25 26 27 28 29 30 31 32 33 34 35 36 37 38 39 40 41 42 43 44 45 46 47 48 49 50
000
ASUS43 KOAX 050402
RWRNE

WEATHER ROUNDUP FOR NEBRASKA
NATIONAL WEATHER SERVICE OMAHA NE
1100 PM CDT FRI SEP 04 2015

NOTES: SATELLITE DATA IS BEING USED TO AUGMENT CLOUD COVER ABOVE
       12000 FEET.
       "FAIR" INDICATES FEW OR NO CLOUDS BELOW 12,000 FEET WITH NO
       SIGNIFICANT WEATHER AND/OR OBSTRUCTIONS TO VISIBILITY.

  * THESE STATIONS DO NOT REPORT WEATHER SUCH AS RAIN...SNOW OR FOG.

NEZ001>004-019>022-054>056-050500-
NEBRASKA PANHANDLE

CITY           SKY/WX    TMP DP  RH WIND       PRES   REMARKS
SCOTTSBLUFF    CLOUDY    76  50  40 N3        29.87S
ALLIANCE       MOCLDY    73  51  46 SE6       29.88R
CHADRON        MOCLDY    79  49  34 S12       29.81S
KIMBALL        MOCLDY    68  47  47 SE6       29.93S
SIDNEY         PTCLDY    72  47  40 SE10      29.91S
$$

NEZ057>060-069>072-079>082-050500-
SOUTHWEST NEBRASKA

CITY           SKY/WX    TMP DP  RH WIND       PRES   REMARKS
NORTH PLATTE   MOCLDY    70  63  78 E7        29.85S
IMPERIAL       MOCLDY    75  56  51 SE7       29.86S
LEXINGTON      PTCLDY    78  62  57 SE8       29.86R
MC COOK        MOCLDY    83  56  39 S9        29.84R
OGALLALA       PTCLDY    73  59  61 E7        29.87R
$$

NEZ005>010-023>029-035>040-094-050500-
NORTH CENTRAL NEBRASKA

CITY           SKY/WX    TMP DP  RH WIND       PRES   REMARKS
VALENTINE      MOCLDY    79  62  56 S10       29.82S
AINSWORTH      PTCLDY    73  64  72 S6        29.84S
BROKEN BOW     PTCLDY    70  65  84 CALM      29.85R
O`NEILL        PTCLDY    78  70  76 SE7       29.84S
ORD            PTCLDY    78  66  66 S6        29.83S
THEDFORD       MOCLDY    75  63  66 SE7       29.86S
$$

NEZ041-046>049-061>064-073>077-083>087-050500-
SOUTH CENTRAL NEBRASKA

CITY           SKY/WX    TMP DP  RH WIND       PRES   REMARKS
GRAND ISLAND   CLEAR     79  66  64 S15       29.87R
AURORA         CLEAR     79  65  63 S13       29.88S
HASTINGS       CLEAR     80  64  58 MISG      29.88R
HEBRON         CLEAR     80  64  56 S12G17    29.89S
HOLDREGE       CLEAR     80  60  50 S9        29.86S
KEARNEY *      CLEAR     79  63  57 S13       29.86S
YORK           CLEAR     77  66  69 S10       29.89S
$$

NEZ011>018-030>034-042>045-050500-
NORTHEAST NEBRASKA

CITY           SKY/WX    TMP DP  RH WIND       PRES   REMARKS
NORFOLK        CLEAR     79  66  64 SE14      29.86R
ALBION         CLEAR     77  65  66 S9        29.86S
BLAIR          FAIR      80  65  61 S13G18    29.91S
COLUMBUS *     CLEAR     77  64  65 S9        29.87S
FREMONT        CLEAR     80  66  61 SE12G18   29.89S
TEKAMAH        CLEAR     77  70  79 SE10      29.89R
$$

NEZ050>053-065>068-078-088>093-050500-
SOUTHEAST NEBRASKA

CITY           SKY/WX    TMP DP  RH WIND       PRES   REMARKS
LINCOLN        CLEAR     80  67  64 S16       29.89S
OMAHA EPPLEY   MOCLDY    80  67  64 SE14      29.91R
BEATRICE       CLEAR     78  67  69 S12       29.91S
FALLS CITY     CLEAR     75  69  81 S7        29.94R
NEBRASKA CITY  CLEAR     76  62  60 S10       29.94R
PLATTSMOUTH    PTCLDY    76  65  67 SE12G17   29.93R
$$

NEZ044-045-051>053-067-050500-
OMAHA AREA

CITY           SKY/WX    TMP DP  RH WIND       PRES   REMARKS
EPPLEY FIELD   MOCLDY    80  67  64 SE14      29.91R
BLAIR          PTCLDY    80  65  61 S13G18    29.91S
FREMONT        CLEAR     80  66  61 SE12G18   29.89S
MILLARD        PTCLDY    80  69  68 SE9       29.90S
OFFUTT AFB     PTCLDY    75  67  75 SE7       29.91S
PLATTSMOUTH    PTCLDY    76  65  67 SE12G17   29.93R
WAHOO          FAIR      73  68  83 SE6       29.89S
$$



USA.gov is the U.S. government's official web portal to all federal, state and local government web resources and services.